Вернуться в каталог

STARLINK-35664

АктивенСвязьVLEO
NORAD 66223·PAYLOAD·🇺🇸 United States

Запущен Oct 28, 2025 с Vandenberg Space Force Base

Loading…

Ближайшие Пролёты (ближайшие 24 часа)

TLE

СвежийSource: CelesTrak SupGP

Эпоха: Sep 15, 2026, 03:55 UTC

1 66223C 25244T   26258.16368056 -.00025663  00000+0 -75830-3 0  2581
2 66223  53.1589  68.3768 0001262  88.2795 111.9957 15.34400405    10

Отслеживайте STARLINK-35664 в реальном времени с AllMySat

Download on the App Store